Milton, FL

11:05 AM CDT on May 24, 2017 (GMT -0500)
Whiting Field Naval Air Station (South)

Weather History for KNDZ - July, 2013

Change the Weather History Date:

Friday, July 19, 2013

  Actual Average (KNSE) Record (KNSE)
Temperature  
Mean Temperature 79 °F -  
Max Temperature 87 °F 87 °F 100 °F (2000)
Min Temperature 71 °F 70 °F 35 °F (2001)
Cooling Degree Days 14    
Growing Degree Days 29 (Base 50)    
Moisture  
Dew Point 71 °F    
Average Humidity 81    
Maximum Humidity 93    
Minimum Humidity 59    
Precipitation  
Precipitation 0.00 in - - ()
Sea Level Pressure  
Sea Level Pressure 30.01 in    
Wind  
Wind Speed 3 mph (East)    
Max Wind Speed 15 mph    
Max Gust Speed 16 mph    
Visibility 10 miles    
Events      
Averages and records for this station are not official NWS values.
T = Trace of Precipitation, MM = Missing Value Source: NWS Daily Summary

Daily Weather History Graph

Daily Weather History Graph

Search for Another Location

Airport or City:

Trip Planner

Search our weather history database for the weather conditions in past years. The results will help you decide how hot, cold, wet, or windy it might be!

Date:

Astronomy

Jul. 19, 2013 Rise Set
Actual Time 5:58 AM CDT 7:50 PM CDT
Civil Twilight 5:31 AM CDT 8:17 PM CDT
Nautical Twilight 4:58 AM CDT 8:49 PM CDT
Astronomical Twilight 4:24 AM CDT 9:24 PM CDT
Moon 4:52 PM CDT (7/19) 2:37 AM CDT (7/19)
Length of Visible Light 14h 46m
Length of Day
13h 52m
Waxing Gibbous, 87% of the Moon is Illuminated
Jul 19
Waxing Gibbous
Jul 22
Full
Jul 29
Last Quarter
Aug 6
New
Aug 14
First Quarter

Hourly Weather History & Observations

Time (CDT) Temp. Heat Index Dew Point Humidity Pressure Visibility Wind Dir Wind Speed Gust Speed Precip Events Conditions
12:56 AM 75.0 °F - 71.1 °F 87% 30.03 in 10.0 mi Calm Calm - N/A   Clear
1:56 AM 73.9 °F - 71.1 °F 91% 30.02 in 10.0 mi Calm Calm - N/A   Clear
2:56 AM 72.0 °F - 70.0 °F 93% 30.01 in 10.0 mi Calm Calm - N/A   Clear
3:56 AM 71.1 °F - 68.0 °F 90% 30.00 in 10.0 mi Calm Calm - N/A   Clear
4:56 AM 73.0 °F - 70.0 °F 90% 30.00 in 10.0 mi Calm Calm - N/A   Clear
5:56 AM 73.0 °F - 70.0 °F 90% 30.00 in 10.0 mi NE 5.8 mph - N/A   Clear
6:56 AM 73.9 °F - 71.1 °F 91% 30.03 in 10.0 mi NNE 3.5 mph - N/A   Clear
7:56 AM 75.9 °F - 72.0 °F 87% 30.05 in 10.0 mi ENE 8.1 mph - N/A   Scattered Clouds
8:56 AM 80.1 °F 84.2 °F 73.0 °F 79% 30.06 in 10.0 mi ENE 8.1 mph - N/A   Clear
9:56 AM 84.9 °F 91.4 °F 73.0 °F 67% 30.05 in 10.0 mi ENE 10.4 mph - N/A   Clear
10:56 AM 84.9 °F 90.7 °F 72.0 °F 65% 30.04 in 10.0 mi ENE 5.8 mph - N/A   Clear
11:56 AM 87.1 °F 92.8 °F 71.1 °F 59% 30.02 in 10.0 mi ESE 15.0 mph - N/A   Mostly Cloudy
12:56 PM 86.0 °F 90.7 °F 70.0 °F 59% 30.00 in 10.0 mi East 8.1 mph 16.1 mph N/A   Partly Cloudy
1:56 PM 86.0 °F 91.5 °F 71.1 °F 61% 29.99 in 10.0 mi SSE 8.1 mph - N/A   Partly Cloudy
2:56 PM - - - N/A% 30.04 in - North - - N/A   Unknown
3:56 PM - - - N/A% 30.03 in - North - - N/A   Unknown
4:56 PM - - - N/A% 30.01 in - North - - N/A   Unknown
5:56 PM - - - N/A% 29.99 in - North - - N/A   Unknown
6:56 PM - - - N/A% 29.98 in - North - - N/A   Unknown
7:56 PM 80.1 °F 83.8 °F 72.0 °F 76% 29.96 in 10.0 mi South 3.5 mph - N/A   Partly Cloudy
8:56 PM 78.1 °F - 73.0 °F 84% 29.96 in 10.0 mi SE 4.6 mph - N/A   Partly Cloudy
9:56 PM 78.1 °F - 73.0 °F 84% 29.98 in 10.0 mi SSE 3.5 mph - N/A   Clear
10:56 PM 77.0 °F - 73.0 °F 88% 29.98 in 10.0 mi East 5.8 mph - N/A   Clear
11:56 PM 75.9 °F - 73.0 °F 91% 29.98 in 10.0 mi ENE 4.6 mph - N/A   Clear